This is the latest recevied weather packets stored in our database for station/object NC4J. If no packets are shown the sender has not sent any weather packets the latest 10 day(s).
| Time | Temp. | Humidity | Pressure | Rain* | Wind** | Luminosity | Snow |
|---|---|---|---|---|---|---|---|
| 1777732027 | 10° C | 57% | 1014.6 hPa | 0 mm | - | 39 W/m² | - |
| 1777731723 | 10° C | 59% | 1014.8 hPa | 0 mm | - | 44 W/m² | - |
| 1777731421 | 10° C | 61% | 1014.8 hPa | 0 mm | - | 39 W/m² | - |
| 1777731119 | 10° C | 61% | 1014.7 hPa | 0 mm | - | 39 W/m² | - |
| 1777730817 | 9.44° C | 61% | 1014.5 hPa | 0 mm | - | 36 W/m² | - |
| 1777730513 | 9.44° C | 60% | 1014.7 hPa | 0 mm | - | 32 W/m² | - |
| 1777730209 | 9.44° C | 61% | 1014.7 hPa | 0 mm | - | 31 W/m² | - |
| 1777729906 | 9.44° C | 62% | 1014.7 hPa | 0 mm | - | 27 W/m² | - |
| 1777729602 | 9.44° C | 61% | 1014.7 hPa | 0 mm | - | 26 W/m² | - |
| 1777729299 | 9.44° C | 61% | 1014.6 hPa | 0 mm | - | 20 W/m² | - |
| 1777728996 | 10° C | 63% | 1014.7 hPa | 0 mm | - | 17 W/m² | - |
| 1777728692 | 10° C | 62% | 1014.8 hPa | 0 mm | - | 16 W/m² | - |
| 1777728389 | 10° C | 64% | 1014.2 hPa | 0 mm | - | 28 W/m² | - |
| 1777728087 | 10° C | 61% | 1014.2 hPa | 0 mm | - | 38 W/m² | - |
| 1777727784 | 10° C | 63% | 1014.2 hPa | 0 mm | - | 34 W/m² | - |
| 1777727480 | 10° C | 62% | 1014.2 hPa | 0 mm | - | 32 W/m² | - |
| 1777727178 | 10° C | 63% | 1014.5 hPa | 0 mm | - | 33 W/m² | - |
| 1777726876 | 10° C | 64% | 1014.7 hPa | 0 mm | - | 36 W/m² | - |
| 1777726571 | 10° C | 63% | 1014.6 hPa | 0 mm | - | 41 W/m² | - |
| 1777725966 | 10° C | 65% | 1014.4 hPa | 0 mm | - | 48 W/m² | - |
| 1777725663 | 10° C | 66% | 1014.6 hPa | 0 mm | - | 44 W/m² | - |
| 1777725361 | 10° C | 65% | 1014.2 hPa | 0 mm | - | 46 W/m² | - |
| 1777725058 | 10° C | 66% | 1014.4 hPa | 0 mm | - | 47 W/m² | - |
| 1777724754 | 10° C | 65% | 1014.5 hPa | 0 mm | - | 26 W/m² | - |
| 1777724451 | 10° C | 67% | 1014.4 hPa | 0 mm | - | 25 W/m² | - |
* Rain latest hour (hover to see other rain measurements)
** Current wind speed in m/s (hover to see current wind gust speed)